Weather History for St. Thomas, VI

Change the Weather History Date:

Sunday, February 3, 2013

  Actual Average Record
Temperature  
Mean Temperature 77 °F 79 °F  
Max Temperature 82 °F 85 °F 91 °F (1995)
Min Temperature 72 °F 73 °F 65 °F (1986)
Degree Days  
Heating Degree Days 0 0  
Month to date heating degree days 0 0  
Since 1 July heating degree days 0 0  
Cooling Degree Days 12 14  
Month to date cooling degree days 36 42  
Year to date cooling degree days 463 470  
Growing Degree Days 27 (Base 50)    
Moisture  
Dew Point 65 °F    
Average Humidity 69    
Maximum Humidity 79    
Minimum Humidity 58    
Precipitation  
Precipitation 0.00 in 0.05 in 1.12 in (1956)
Month to date precipitation T 0.16  
Year to date precipitation 0.55 2.54  
Sea Level Pressure  
Sea Level Pressure 29.99 in    
Wind  
Wind Speed 9 mph (ESE)    
Max Wind Speed 20 mph    
Max Gust Speed 24 mph    
Visibility 10 miles    
Events      
T = Trace of Precipitation, MM = Missing Value Source: NWS Daily Summary

Daily Weather History Graph

Daily Weather History Graph

Search for Another Location

Airport:

Trip Planner

Search our weather history database for the weather conditions in past years. The results will help you decide how hot, cold, wet, or windy it might be!

Date:

Astronomy

Feb. 03, 2013 Rise Set
Actual Time 6:52 AM AST 6:15 PM AST
Civil Twilight 6:29 AM AST 6:37 PM AST
Nautical Twilight 6:03 AM AST 7:04 PM AST
Astronomical Twilight 5:37 AM AST 7:29 PM AST
Moon 12:14 AM AST (2/3) 11:53 AM AST (2/3)
Length of Visible Light 12h 08m
Length of Day
11h 22m
Waning Gibbous, 49% of the Moon is Illuminated
Feb 3
Waning Gibbous
Feb 10
New
Feb 17
First Quarter
Feb 25
Full
Mar 4
Last Quarter

Hourly Weather History & Observations

Time (AST) Temp. Heat Index Dew Point Humidity Pressure Visibility Wind Dir Wind Speed Gust Speed Precip Events Conditions
12:53 AM 73.9 °F - 64.9 °F 73% 30.01 in 10.0 mi East 6.9 mph - N/A   Clear
2:53 AM 73.0 °F - 64.9 °F 76% 29.97 in 10.0 mi East 8.1 mph - N/A   Clear
3:53 AM 73.0 °F - 66.0 °F 79% 29.96 in 10.0 mi East 8.1 mph - N/A   Partly Cloudy
4:53 AM 73.9 °F - 66.0 °F 76% 29.96 in 10.0 mi East 6.9 mph - N/A   Clear
5:53 AM 73.0 °F - 66.0 °F 79% 29.98 in 10.0 mi ESE 3.5 mph - N/A   Partly Cloudy
6:53 AM 73.0 °F - 64.9 °F 76% 30.00 in 10.0 mi East 10.4 mph - N/A   Clear
7:53 AM 75.9 °F - 64.9 °F 69% 30.03 in 10.0 mi ESE 9.2 mph - N/A   Clear
8:53 AM 79.0 °F - 64.9 °F 62% 30.04 in 10.0 mi ESE 13.8 mph - N/A   Clear
9:53 AM 80.1 °F 81.9 °F 64.9 °F 60% 30.04 in 10.0 mi SE 15.0 mph - N/A   Clear
10:53 AM 81.0 °F 82.7 °F 64.9 °F 58% 30.04 in 10.0 mi SE 12.7 mph 23.0 mph N/A   Clear
11:53 AM 81.0 °F 82.5 °F 64.0 °F 56% 30.01 in 10.0 mi SE 16.1 mph - N/A   Mostly Cloudy
12:53 PM 81.0 °F 82.5 °F 64.0 °F 56% 29.98 in 10.0 mi SE 17.3 mph - N/A   Clear
1:53 PM 81.0 °F 82.7 °F 64.9 °F 58% 29.95 in 10.0 mi SSE 15.0 mph - N/A   Clear
2:53 PM 81.0 °F 83.0 °F 66.0 °F 60% 29.93 in 10.0 mi SSE 13.8 mph - N/A   Partly Cloudy
3:53 PM 80.1 °F 82.3 °F 66.9 °F 64% 29.93 in 10.0 mi SSE 13.8 mph - N/A   Clear
4:53 PM 80.1 °F 81.9 °F 64.9 °F 60% 29.93 in 10.0 mi SE 12.7 mph - N/A   Clear
5:53 PM 78.1 °F - 66.9 °F 68% 29.96 in 10.0 mi SE 9.2 mph - N/A   Clear
6:53 PM 77.0 °F - 66.0 °F 69% 29.96 in 10.0 mi SE 5.8 mph - N/A   Clear
7:53 PM 75.0 °F - 66.0 °F 73% 29.99 in 10.0 mi ENE 3.5 mph - N/A   Clear
8:53 PM 73.9 °F - 64.0 °F 71% 30.01 in 10.0 mi ENE 4.6 mph - N/A   Clear
9:53 PM 73.0 °F - 64.9 °F 76% 30.02 in 10.0 mi Calm Calm - N/A   Clear
10:53 PM 72.0 °F - 64.9 °F 78% 30.01 in 10.0 mi East 3.5 mph - N/A   Clear
11:53 PM 73.9 °F - 64.9 °F 73% 30.00 in 10.0 mi East 5.8 mph - N/A   Clear